Location: Unspecified
(0.0000°N, 0.0000°E)
Time: 18:51:14
(UTC+00:00)

Vanguard 2 - Pass Details

Date: 24 April 2026
Orbit: 553 x 2895 km, 32.9° (Epoch: 17 May)

Event Time Altitude Azimuth Distance (km) Brightness Sun altitude
Exits shadow 02:33:40 34° 158° (SSE) 3,730 10.8 -49.4°
Maximum altitude 02:34:11 34° 155° (SSE) 3,705 10.8 -49.3°
Drops below altitude 10° 02:45:49 10° 95° (E) 4,520 11.9 -46.5°
Sets 02:49:22 0° 86° (E) 5,202 12.5 -45.7°
